This demonstration page uses our WeatherBlox Daily Observations layout. Learn more.

Left ArrowRight Arrow

44.89941, -97.11507

Hourly Observations for July 6, 2020

Temp ( °F °C ) Dew Point ( °F °C ) Humidity (%) Winds ( mph kmh ) Pressure ( in mb ) Visibility ( mi km ) Precip ( " mm )
12:53 am 00:53 Clear 69 20.6 58 14.4 68 68 NNE 10 17 29.95 1014 10 16 0.00 0.00
1:53 am 01:53 Clear 69 20.6 58 14.4 68 68 S 6 9 29.94 1014 10 16 0.00 0.00
2:53 am 02:53 Clear 65 18.3 60 15.6 84 84 S 10 17 29.92 1013 10 16 0.00 0.00
3:53 am 03:53 Clear 68 20 60 15.6 76 76 SW 10 17 29.94 1014 10 16 0.00 0.00
4:53 am 04:53 Clear 70 21.1 62 16.7 76 76 W 8 13 29.98 1015 10 16 0.00 0.00
5:53 am 05:53 Mostly Cloudy with Light Rain 68 20 63 17.2 84 84 E 16 26 29.91 1013 10 16 0.00 0.00
6:53 am 06:53 Partly Cloudy 68 20 62 16.7 81 81 ESE 3 6 29.93 1013 10 16 0.00 0.00
7:53 am 07:53 Partly Cloudy 69 20.6 64 17.8 84 84 Calm 29.97 1015 10 16 0.00 0.00
8:53 am 08:53 Mostly Cloudy 71 21.7 64 17.8 79 79 WNW 6 9 29.98 1015 10 16 0.00 0.00
9:53 am 09:53 Mostly Cloudy 72 22.2 64 17.8 76 76 WNW 5 7 29.99 1016 10 16 0.00 0.00
10:51 am 10:51 Cloudy 73 23 64 18 74 74 NE 7 11 29.94 1014 10 16 0.00 0.00
10:53 am 10:53 Cloudy 73 22.8 65 18.3 76 76 NNE 6 9 29.98 1015 10 16 0.00 0.00
11:53 am 11:53 Cloudy 73 22.8 65 18.3 76 76 Calm 30.00 1016 10 16 0.00 0.00
12:10 pm 12:10 Cloudy 74 23.3 66 18.9 76 76 Calm 29.95 1014 10 16 0.00 0.00
12:31 pm 12:31 Cloudy 75 23.9 66 18.9 74 74 Calm 29.95 1014 10 16 0.00 0.00
12:53 pm 12:53 Mostly Cloudy 74 23.3 66 18.9 76 76 Calm 30.00 1016 10 16 0.00 0.00
1:53 pm 13:53 Mostly Sunny 78 25.6 67 19.4 69 69 WSW 6 9 29.97 1015 10 16 0.00 0.00
2:21 pm 14:21 Mostly Cloudy 79 26.1 67 19.4 67 67 VRB 7 11 29.90 1012 10 16 0.00 0.00
2:30 pm 14:30 Partly Cloudy 79 26.1 67 19.4 67 67 VRB 3 6 29.90 1012 10 16 0.00 0.00
2:41 pm 14:41 Mostly Cloudy 80 26.7 67 19.4 64 64 VRB 5 7 29.89 1012 10 16 0.00 0.00
2:49 pm 14:49 Mostly Sunny 81 27 68 20 66 66 SSW 7 11 29.89 1012 10 16 0.00 0.00
2:53 pm 14:53 Mostly Sunny 80 26.7 67 19.4 64 64 undefined N/A 29.96 1015 10 16 0.00 0.00
3:53 pm 15:53 Sunny 81 27.2 66 18.9 61 61 VRB 3 6 29.94 1014 10 16 0.00 0.00
4:53 pm 16:53 Sunny 80 26.7 66 18.9 62 62 SSW 8 13 29.95 1014 10 16 0.00 0.00
5:53 pm 17:53 Sunny 82 27.8 67 19.4 60 60 S 9 15 29.93 1014 10 16 0.00 0.00
6:53 pm 18:53 Sunny 82 27.8 66 18.9 58 58 SSW 3 6 29.94 1014 10 16 0.00 0.00
7:53 pm 19:53 Sunny 81 27.2 65 18.3 58 58 Calm 29.93 1014 10 16 0.00 0.00
8:53 pm 20:53 Sunny 78 25.6 66 18.9 67 67 Calm 29.92 1013 10 16 0.00 0.00
9:53 pm 21:53 Clear 73 22.8 66 18.9 79 79 Calm 29.92 1013 10 16 0.00 0.00
10:53 pm 22:53 Clear 74 23.3 66 18.9 76 76 Calm 29.92 1013 10 16 0.00 0.00
11:53 pm 23:53 Clear 72 22.2 65 18.3 79 79 E 3 6 29.92 1013 10 16 0.00 0.00

Powered by AerisWeather